Location: Unspecified
(0.0000°N, 1.0000°E)
Time: 17:12:33
(UTC+02:00)

Daily predictions for brighter satellites

Satellite Brightness Start Highest point End
(mag) Time Altitude Azimuth Time Altitude Azimuth Time Altitude Azimuth
SL-27 R/B 4.5 20:19:57 10° NE 20:21:26 12° ENE 20:22:54 10° ESE
Tiangong 2 1.4 20:18:39 10° SSW 20:21:39 45° SE 20:24:38 10° ENE
MAQSAT/ARIANE V 3.5 20:12:07 10° W 20:23:16 41° SSW 20:26:07 10° ESE
ALOS 4.0 20:21:49 10° ESE 20:23:49 13° ENE 20:25:49 10° NE
Cosmos 1605 Rocket 4.0 20:19:02 10° S 20:25:10 66° E 20:31:21 10° NNE
Milstar 3 3.1 20:18:23 10° SW 20:27:05 59° SSE 20:33:35 10° ENE
Cosmos 2098 Rocket 4.4 20:23:45 10° SSE 20:29:41 46° E 20:36:34 10° NNE
NOSS 3-4 (A) 4.1 20:22:11 10° NNW 20:29:46 90° ENE 20:37:36 10° SSE
NOSS 3-4 (C) 4.1 20:22:18 10° NNW 20:29:52 89° ENE 20:37:42 10° SSE
Meteor 1-24 Rocket 4.3 20:25:22 10° NNE 20:30:40 37° E 20:36:08 10° SSE
YAOGAN 1 4.2 20:26:53 10° S 20:30:56 39° WSW 20:34:57 10° NNW
Cosmos 1271 Rocket 3.5 20:37:14 10° SSE 20:40:44 30° E 20:44:15 10° NNE
COSMOS 2406 3.2 20:35:37 10° N 20:41:16 76° ENE 20:46:55 10° SSE
Ariane H10 2.3 20:38:39 10° WNW 20:41:35 76° N 20:48:09 14° E
Cosmos 1707 3.4 20:39:21 10° NNW 20:43:08 57° W 20:46:55 10° S
Cosmos 2369 Rocket 3.4 20:39:34 10° SSE 20:43:42 21° ESE 20:47:48 10° ENE
Resurs 01 Rocket 3.6 20:45:37 11° ENE 20:45:37 11° ENE 20:46:00 10° ENE
Cosmos 192 4.5 20:39:38 10° NNW 20:44:30 78° WSW 20:49:24 10° S
Ariane H10-3 3.1 20:41:43 10° WSW 20:45:02 61° S 20:55:49 16° E
GPS 2-18 Rocket1 4.2 20:43:48 10° SW 20:47:09 29° SSE 20:49:10 18° ESE
Cosmos 1758 3.5 20:44:41 10° S 20:48:40 76° W 20:52:37 10° N
USA 234 3.4 20:42:26 10° SSE 20:49:00 80° SW 20:55:34 10° NW
Meteor 1-4 Rocket 3.2 20:46:08 10° SSW 20:49:35 55° W 20:52:59 10° N
FENGYUN 3A 4.5 20:45:04 10° SE 20:49:40 28° ENE 20:54:14 10° NNE
ARIANE 44P R/B 2.6 20:48:24 10° W 20:52:15 42° SSW 20:53:32 21° SE
Cosmos 1953 2.6 20:50:19 10° S 20:54:22 71° W 20:58:25 10° N
SL-8 R/B 4.3 20:53:08 10° SSW 20:57:35 37° SE 21:00:01 22° ENE
ERBS 3.2 20:55:09 10° S 20:58:10 29° ESE 20:58:35 28° ESE
NOAA 12 4.0 20:53:01 10° SSE 20:58:21 76° ENE 21:03:38 10° N
In-Cosmos 22 4.4 20:54:40 10° NNE 20:59:37 42° E 21:04:40 10° SSE
ARIANE 5 DEB (SYLDA) 2.8 20:58:38 10° W 21:02:21 36° SSW 21:02:58 29° SSE
Cosmos 2123 Rocket 3.9 20:58:12 10° N 21:04:24 67° E 21:10:33 10° SSE
Ariane H10+ 3.7 21:00:55 10° W 21:06:30 64° N 21:19:28 21° ENE
Cosmos 2061 Rocket 4.1 21:07:00 10° S 21:13:10 55° E 21:19:22 10° NNE
Cosmos 1459 Rocket 4.0 21:07:14 10° S 21:13:31 62° E 21:19:39 10° NNE
deb Ariane 4.0 21:19:15 10° NW 21:20:58 29° N 21:20:58 29° N
Cosmos 2173 Rocket 3.8 21:16:39 10° S 21:22:44 74° E 21:28:52 10° N
ARIANE 5 DEB (SYLDA) 4.2 21:23:06 10° WNW 21:23:38 17° WNW 21:23:38 17° WNW
Meteor 2-17 Rocket 4.5 21:19:06 10° SSE 21:25:03 52° E 21:30:58 10° NNE
HJ-1C 4.3 21:29:22 41° NNW 21:29:22 41° NNW 21:31:40 10° N
Palapa 6 Rocket 4.1 21:21:00 10° WNW 21:28:32 77° SSW 21:31:09 39° SE
FALCON 9 R/B 2.5 21:25:47 10° WSW 21:29:43 27° NW 21:30:29 24° NNW
Meteor 1-21 Rocket 4.5 21:24:53 10° NNE 21:30:32 48° E 21:31:01 47° E
NATO 3D Rocket 4.4 21:25:42 10° NW 21:31:57 62° NNE 21:34:53 40° E
Cosmos 1733 4.4 21:30:08 10° SSW 21:33:48 43° W 21:37:28 10° NNW
ARIANE 44LP R/B 4.4 21:30:02 10° W 21:34:38 75° S 21:42:53 33° ESE
ARIANE 44LP R/B 4.4 21:30:02 10° W 21:34:39 75° S 21:42:55 33° ESE
ARIANE 44LP R/B 4.4 21:30:02 10° W 21:34:39 75° S 21:42:54 33° ESE
Helios 1B rocket 3.0 21:31:12 10° N 21:35:13 57° WNW 21:39:15 10° SSW
ARIANE 5 DEB (SYLDA) 3.0 21:31:45 10° W 21:35:58 75° S 21:36:08 73° SSE
Cosmos 1470 4.5 21:35:58 10° SSW 21:39:36 33° W 21:43:12 10° NNW
Cosmos 1447 Rocket 4.3 21:34:52 10° N 21:41:01 74° E 21:47:14 10° S
FengYun 1-2 T 4.2 21:37:04 10° S 21:42:36 81° WSW 21:48:10 10° NNW
Meteor 1-16 Rocket 4.2 21:45:16 10° S 21:50:57 83° W 21:56:46 10° N
Cosmos 2016 Rocket 4.0 21:48:43 10° S 21:55:03 79° W 22:01:16 10° N
RESURS DK-1 4.2 21:54:47 10° NW 21:58:22 29° WSW 21:59:01 27° SW
Cosmos 2082 Rocket 4.4 21:55:19 10° N 21:55:52 13° N 21:55:52 13° N
ALOS 4.0 21:56:53 10° SSW 22:00:59 30° WSW 22:05:04 10° NW
CZ-4C R/B 4.0 21:59:26 10° WSW 22:03:23 24° WNW 22:07:24 10° NNW
Spot 2 Rocket 4.3 22:05:44 45° NW 22:05:44 45° NW 22:09:21 10° NNW
Resurs 01 Rocket 4.2 22:23:11 17° NW 22:23:11 17° NW 22:24:27 10° NW
Cosmos 2369 Rocket 4.0 22:22:43 10° SW 22:27:27 27° WNW 22:30:57 15° NNW
Ariane H10 4.2 21:49:04 10° W 22:32:25 78° N 22:32:50 77° NNE
ATLAS 3B R/B 4.1 22:31:57 10° SSW 22:35:43 33° SSW 22:35:43 33° SSW
